Content
SEND FEEDBACK

Daily
Averages
Monthly
Summary
Canada

VANCOUVER, BRITISH COLUMBIA


Home > North America > Canada > British Columbia
Elevation: 7 feet     Latitude: 49 11N     Longitude: 123 10W

WEATHER
 
SELECT A DAY
Number of Records: 249,842;   Date Range: 5/15/97 - 9/17/14
 
SHARE

PRINT THIS DATA

[ ← Previous Day ]
WEATHER ALMANAC - APRIL 29, 2013
[ Next Day → ]
[ °C ]   °F
Weather ElementAverageHighLow
Temperature46.2 °F51.8 °F (3:15 pm)42.8 °F (3:55 am)
Dewpoint37.1 °F44.6 °F (12:35 am)32 °F (10:55 am)
Humidity71.9 %100 % (1:55 am)50 % (12:35 pm)
Barometer30.04 in30.13 in (11:55 pm)29.89 in (1:15 am)
Wind Speed6.6 mph15 mph (12:55 pm)
Wind Gust20.7 mph (5:55 am)
Weather ElementAverage
Visibility9.6 mi
Wind DirectionSW (226.2 °)

Weather ElementTotal
Precipitation---
Heating Degree Days17.7 (Base 65)
Averaged from 68 records on April 29, 2013
WEATHER CONDITIONS BREAKOUT
WIND DIRECTION BREAKOUT
WEATHER BY HOUR - APRIL 29, 2013
[ °C ]   °F
Local TimeTemperatureDewpointHumidityBarometerVisibilityWind DirectionWind SpeedGust SpeedPrecipitationEventsConditions
12:35 AM46.4 °F44.6 °F93 %29.90 in5.0 miSSW (200°)11.5 mphRainLight Rain
12:55 AM46.4 °F44.6 °F93 %29.90 in9.0 miSouth (190°)12.7 mphRainLight Rain
1:15 AM46.4 °F44.6 °F93 %29.89 in10.0 miSouth (190°)13.8 mph17.3 mphScattered Clouds
1:55 AM44.6 °F44.6 °F100 %29.89 in10.0 miSouth (190°)11.5 mph16.1 mphPartly Cloudy
2:15 AM44.6 °F44.6 °F100 %29.89 in10.0 miSSW (210°)8.1 mphClear
2:35 AM44.6 °F42.8 °F93 %29.90 in10.0 miSSW (210°)6.9 mphClear
2:55 AM44.6 °F42.8 °F93 %29.90 in10.0 miSSW (210°)6.9 mphClear
3:15 AM44.6 °F41.0 °F87 %29.91 in10.0 miSSW (200°)6.9 mphClear
3:35 AM44.6 °F39.2 °F81 %29.92 in10.0 miSW (220°)5.8 mphClear
3:55 AM42.8 °F39.2 °F87 %29.92 in10.0 miSW (220°)6.9 mphClear
4:15 AM44.6 °F37.4 °F76 %29.93 in10.0 miSSW (210°)6.9 mphClear
4:35 AM44.6 °F37.4 °F76 %29.94 in10.0 miWSW (250°)4.6 mphClear
4:55 AM44.6 °F37.4 °F76 %29.95 in10.0 miWSW (240°)3.5 mphClear
5:15 AM44.6 °F37.4 °F76 %29.95 in10.0 miWest (270°)6.9 mphClear
5:35 AM44.6 °F37.4 °F76 %29.96 in10.0 miWest (280°)4.6 mphMostly Cloudy
5:55 AM44.6 °F37.4 °F76 %29.96 in10.0 miNNW (340°)12.7 mph20.7 mphOvercast
6:15 AM44.6 °F37.4 °F76 %29.98 in10.0 miNW (310°)11.5 mph16.1 mphMostly Cloudy
6:35 AM44.6 °F37.4 °F76 %29.98 in10.0 miNW (320°)9.2 mph16.1 mphMostly Cloudy
6:55 AM44.6 °F35.6 °F71 %29.99 in10.0 miWest (280°)5.8 mphMostly Cloudy
7:15 AM44.6 °F35.6 °F71 %30.00 in10.0 miWest (270°)4.6 mphMostly Cloudy
7:35 AM44.6 °F37.4 °F76 %30.01 in10.0 miWSW (250°)5.8 mphOvercast
7:55 AM44.6 °F37.4 °F76 %30.02 in10.0 miWNW (290°)3.5 mphMostly Cloudy
8:15 AM44.6 °F37.4 °F76 %30.02 in10.0 miWNW (290°)9.2 mphMostly Cloudy
8:35 AM44.6 °F37.4 °F76 %30.03 in9.0 miWNW (300°)6.9 mphScattered Clouds
8:55 AM46.4 °F37.4 °F71 %30.04 in10.0 miWNW (290°)5.8 mphScattered Clouds
9:15 AM44.6 °F35.6 °F71 %30.04 in10.0 miSW (230°)6.9 mphScattered Clouds
9:35 AM46.4 °F35.6 °F66 %30.05 in10.0 miSW (220°)5.8 mphMostly Cloudy
9:55 AM48.2 °F35.6 °F62 %30.05 in10.0 miWSW (240°)9.2 mphMostly Cloudy
10:15 AM48.2 °F35.6 °F62 %30.04 in10.0 miWSW (240°)9.2 mphScattered Clouds
10:55 AM46.4 °F32.0 °F57 %30.06 in10.0 miWSW (250°)4.6 mphMostly Cloudy
11:15 AM48.2 °F32.0 °F54 %30.07 in10.0 miCalmMostly Cloudy
11:35 AM48.2 °F33.8 °F58 %30.07 in10.0 miNNW (330°)8.1 mphMostly Cloudy
11:55 AM48.2 °F32.0 °F54 %30.07 in10.0 miCalmScattered Clouds
12:15 PM50.0 °F33.8 °F54 %30.08 in10.0 miWNW (300°)5.8 mphScattered Clouds
12:35 PM50.0 °F32.0 °F50 %30.08 in10.0 miNNW (340°)12.7 mph16.1 mphPartly Cloudy
12:55 PM50.0 °F32.0 °F50 %30.08 in10.0 miNNW (340°)15.0 mph20.7 mphClear
1:15 PM50.0 °F35.6 °F58 %30.08 in10.0 miNorth (350°)10.4 mph17.3 mphScattered Clouds
1:35 PM48.2 °F32.0 °F54 %30.09 in10.0 miNorth (350°)9.2 mph17.3 mphRainLight Rain
1:55 PM48.2 °F32.0 °F54 %30.08 in10.0 miNNW (340°)9.2 mphScattered Clouds
2:15 PM50.0 °F32.0 °F50 %30.09 in10.0 miNNW (340°)6.9 mphPartly Cloudy
2:35 PM50.0 °F35.6 °F58 %30.08 in10.0 miNNW (340°)11.5 mphClear
3:15 PM51.8 °F35.6 °F54 %30.08 in9.0 miNorth (350°)8.1 mphClear
3:35 PM50.0 °F32.0 °F50 %30.08 in10.0 miNorth (350°)8.1 mphScattered Clouds
3:55 PM50.0 °F32.0 °F50 %30.08 in10.0 miNorth (350°)5.8 mphPartly Cloudy
4:15 PM50.0 °F35.6 °F58 %30.08 in10.0 miNNW (340°)5.8 mphScattered Clouds
4:35 PM50.0 °F35.6 °F58 %30.08 in10.0 miNNW (340°)6.9 mphScattered Clouds
4:55 PM48.2 °F35.6 °F62 %30.08 in10.0 miNW (320°)5.8 mphMostly Cloudy
5:15 PM48.2 °F33.8 °F58 %30.09 in8.0 miNorth (10°)4.6 mphRainLight Rain
5:35 PM48.2 °F35.6 °F62 %30.09 in10.0 miCalmMostly Cloudy
5:55 PM48.2 °F35.6 °F62 %30.09 in10.0 miNNW (330°)6.9 mphMostly Cloudy
6:15 PM48.2 °F35.6 °F62 %30.09 in9.0 miCalmRainLight Rain
6:35 PM48.2 °F33.8 °F58 %30.09 in5.0 miCalmRainLight Rain
6:55 PM44.6 °F39.2 °F81 %30.09 in10.0 miCalmMostly Cloudy
7:15 PM46.4 °F39.2 °F76 %30.09 in10.0 miCalmScattered Clouds
7:35 PM46.4 °F37.4 °F71 %30.10 in10.0 miSW (220°)5.8 mphMostly Cloudy
7:55 PM44.6 °F39.2 °F81 %30.10 in8.0 miSSW (210°)5.8 mphRainLight Rain
8:15 PM44.6 °F39.2 °F81 %30.09 in9.0 miSouth (190°)6.9 mphScattered Clouds
8:35 PM44.6 °F39.2 °F81 %30.09 in10.0 miSouth (180°)3.5 mphClear
8:55 PM44.6 °F39.2 °F81 %30.09 in10.0 miSSW (210°)6.9 mphScattered Clouds
9:15 PM44.6 °F41.0 °F87 %30.09 in10.0 miSSW (200°)8.1 mphMostly Cloudy
9:35 PM44.6 °F39.2 °F81 %30.10 in10.0 miSSW (200°)8.1 mphScattered Clouds
9:55 PM44.6 °F39.2 °F81 %30.10 in10.0 miSouth (180°)6.9 mphPartly Cloudy
10:15 PM44.6 °F37.4 °F76 %30.11 in8.0 miSSW (210°)9.2 mphRainLight Rain
10:35 PM42.8 °F39.2 °F87 %30.12 in7.0 miWest (270°)5.8 mphRainLight Rain
10:55 PM42.8 °F39.2 °F87 %30.12 in10.0 miSW (220°)6.9 mphRainLight Rain
11:15 PM42.8 °F37.4 °F81 %30.12 in10.0 miCalmPartly Cloudy
11:35 PM42.8 °F37.4 °F81 %30.12 in10.0 miWest (260°)4.6 mphPartly Cloudy
11:55 PM42.8 °F39.2 °F87 %30.13 in9.0 miCalmRainLight Rain
Hourly data recorded from CZBB, located miles away from Vancouver, British Columbia







STORIES FROM OUR PARTNERS